Showing default

GALILEO 6 (262), 40129

Orbit data source: Space-Track

GALILEO 6 (262), 40129 is a payload satellite owned by GNSS Agency (ESA) in MEO that was launched on Fri, 22 Aug 2014 UTC via a SOYUZ-ST-B launch vehicle from the French Guiana (FRGUI). Payload-class satellites include a variety of spacecraft equipped with specific instruments for various scientific and technological missions. These include communications satellites like Starlink; space stations such as the ISS; scientific satellites like the Hubble; Earth observation satellites from companies like Planet Labs, Umbra, and HawkEye 360; GPS; miniature CubeSats for education and research; and military/defense satellites.

Loading next visibility...
Identifier
40129, 2014-050B
Orbit
MEO
Country
Flag of ESAESA
Related business
Manufacturer
OHB
Mission
On reserve Civil Navigation
Bus & Motor
GALILEOSAT, AOCS
Mass
733 kg wet, 700 kg dry
Launch date (UTC)
2014-08-22 (12 years ago)
Launch vehicle
SOYUZ-ST-B
Launch site
French Guiana (FRGUI)
Object type
Payload
Rocket body
Debris
Shape & HBR
Box + 2 Pan, 7.3 m
Radar Cross Section
9.223 m², Large (>1 m²)

Expand to show TLE details & history
Last TLE update: 2 days ago

TLE from 2 days ago
0 GALILEO 6 (262)
1 40129U 14050B   26164.36060369 -.00000042  00000-0  00000-0 0  9995
2 40129  48.8965 272.6788 1675245 179.9701 180.0913  1.85520497 80418
Epoch: 2026-06-13T08:39Z
TLE epoch observation values (Epoch: 2026-06-13T08:39:16.158Z)
Latitude
-0.00004°
Longitude
-118.83087°
Altitude
26,291.738 km
Speed
3.187 km/s
True Right ascension
18h 10m 39s
True Declination
0° 00' 00"
Sunlit
Object was in daylight at epoch
Visualization orbit readout
Latitude
Unknown
Longitude
Unknown
Altitude
Unknown
Speed
Unknown
Apparent Right ascension
Unknown
Apparent Declination
Unknown
Sunlit
N/A
Visualization observer readout
Local Sidereal Time
18:00:49
Azimuth
Unknown
Elevation
Unknown
Doppler factor
Unknown
Orbital elements
Apogee altitude
26,286.459 km
Perigee altitude
16,912.574 km
Semi-major axis
27,977.654 km
Eccentricity
0.16752
Inclination
48.8965°
RAAN
272.6788°
Arg. of periapsis
179.9701°
True anomaly
180.06603°
Mean anomaly
180.0913°
Eccentric anomaly
180.0782°
Mean motion
0.4638 °/min
Orbital period
776.2 mins
BSTAR
0
Loading maneuver chart data...
Computing Atmospheric mass density...
Loading historical data...
Loading historical data...
Loading historical data...
Loading historical data...
Loading historical data...
Loading historical data...
Loading historical data...
Other satellites on launch #50 in the year 2014 (2014-08-22 UTC)

Documentation

Showing up to 5 results
|